EHI
0 0 0 0 0 0 0 0 0 0 0 0 0 0 0 0 0 0 0 0 0 0 0 0 0 0 0 0 0 0 0 0 0 0 0 0 0 0 0 0 0 0 0
0 0 0 0 0 0 0 0 0 0 0 0 0 0 0 0 0 0 0 0 0 0 0 0 0 0 0 0 0 0 0 0 0 0 0 0 0 0 0 0 0 0 0
0 0 0 0 0 0 0 0 0 0 0 0 0 0 0 0 0 0 0 0 0 0 0 0 0 0 0 0 0 0 0 0 0 0 0 0 0 0 0 0 0 0 0
0 0 0 0 0 0 0 0 0 0 0 0 0 0 0 0 0 0 0 0 0 0 0 0 0 0 0 0 0 0 0 0 0 0 0 0 0 0 0 0 0 0 0
0 0 0 0 0 0 0 0 0 0 0 0 0 0 0 0 0 0 0 0 0 0 0 0 0 0 0 0 0 0 0 0 0 0 0 0 0 0 0 0 0 0 0
0 0 0 0 0 0 0 0 0 0 0 0 0 0 0 0 0 0 0 0 0 0 0 0 0 0 0 0 0 0 0 0 0 0 0 0 0 0 0 0 0 0 0
0 0 0 0 0 0 0 0 0 0 0 0 0 0 0 0 0 0 0 0 0 0 0 0 0 0 0 0 0 0 0 0 0 0 0 0 0 0 0 0 0 0 0
0 0 0 0 0 0 0 0 0 0 0 0 0 0 0 0 0 0 0 0 0 0 0 0 0 0 0 0 0 0 0 0 0 0 0 0 0 0 0 0 0 0 0
0 0 0 0 0 0 0 0 0 0 0 0 0 0 0 0 0 0 0 0 0 0 0 0 0 0 0 0 0 0 0 0 0 0 0 0 0 0 0 0 0 0 0
0 0 0 0 0 0 0 0 0 0 0 0 0 0 0 0 0 0 0 0 0 0 0 0 0 0 0 0 0 0 0 0 0 0 0 0 0 0 0 0 0 0 0
0 0 0 0 0 0 0 0 0 0 0 0 0 0 0 0 0 0 0 0 0 0 0 0 0 0 0 0 0 0 0 0 0 0 0 0 0 0 0 0 0 0 0
0 0 0 0 0 0 0 0 0 0 0 0 0 0 0 0 0 0 0 0 0 0 0 0 0 0 0 0 0 0 0 0 0 0 0 0 0 0 0 0 0 0 0
0 0 0 0 0 0 0 0 0 0 0 0 0 0 0 0 0 0 0 0 0 0 0 0 0 0 0 0 0 0 0 0 0 0 0 0 0 0 0 0 0 0 0
0 0 0 0 0 0 0 0 0 0 0 0 0 0 0 0 0 0 0 0 0 0 0 0 0 0 0 0 0 0 0 0 0 0 0 0 0 0 0 0 0 0 0
0 0 0 0 0 0 0 0 0 0 0 0 0 0 0 0 0 0 0 0 0 0 0 0 0 0 0 0 0 0 0 0 0 0 0 0 0 0 0 0 0 0 0
0 0 0 0 0 0 0 0 0 0 0 0 0 0 0 0 0 0 0 0 0 0 0 0 0 0 0 0 0 0 0 0 0 0 0 0 0 0 0 0 0 0 0
0 0 0 0 0 0 0 0 0 0 0 0 0 0 0 0 0 0 0 0 0 0 0 0 0 0 0 0 0 0 0 0 0 0 0 0 0 0 0 0 0 0 0
0 0 0 0 0 0 0 0 0 0 0 0 0 0 0 0 0 0 0 0 0 0 0 0 0 0 0 0 0 0 0 0 0 0 0 0 0 0 0 0 0 0 0
0 0 0 0 0 0 0 0 0 0 0 0 0 0 0 0 0 0 0 0 0 0 0 0 0 0 0 0 0 0 0 0 0 0 0 0 0 0 0 0 0 0 0
0 0 0 0 0 0 0 0 0 0 0 0 0 0 0 0 0 0 0 0 0 0 0 0 0 0 0 0 0 0 0 0 0 0 0 0 0 0 0 0 0 0 0
0 0 0 0 0 0 0 0 0 0 0 0 0 0 0 0 0 0 0 0 0 0 0 0 0 0 0 0 0 0 0 0 0 0 0 0 0 0 0 0 0 0 0
0 0 0 0 0 0 0 0 0 0 0 0 0 0 0 0 0 0 0 0 0 0 0 0 0 0 0 0 0 0 0 0 0 0 0 0 0 0 0 0 0 0 0
0 0 0 0 0 0 0 0 0 0 0 0 0 0 0 0 0 0 0 0 0 0 0 0 0 0 0 0 0 0 0 0 0 0 0 0 0 0 0 0 0 0 0
0 0 0 0 0 0 0 0 0 0 0 0 0 0 0 0 0 0 0 0 0 0 0 0 0 0 0 0 0 0 0 0 0 0 0 0 0 0 0 0 0 0 0
0 0 0 0 0 0 0 0 0 0 0 0 0 0 0 0 0 0 0 0 0 0 0 0 0 0 0 0 0 0 0 0 0 0 0 0 0 0 0 0 0 0 0
0 0 0 0 0 0 0 0 0 0 0 0 0 0 0 0 0 0 0 0 0 0 0 0 0 0 0 0 0 0 0 0 0 0 0 0 0 0 0 0 0 0 0
Wind_Speed
4 4 4 3 3 3 3 3 3 2 2 2 2 2 2 2 2 2 2 2 2 2 2 3 3 3 2 2 2 2 3 3 6 5 3 3 3 5 5 4 4 5 5
4 4 4 3 3 3 3 3 2 2 2 2 2 2 2 2 2 3 3 3 3 3 3 3 4 3 3 3 3 3 4 4 5 8 5 3 4 5 5 5 5 4 4
4 4 4 3 3 3 3 2 2 2 2 2 2 2 3 3 3 3 3 3 4 4 4 4 4 4 4 4 4 4 4 4 4 5 6 4 3 3 4 5 5 4 5
4 4 4 4 4 3 3 3 3 3 3 3 3 3 3 3 3 3 3 4 4 4 4 5 5 5 6 5 4 5 4 4 4 5 6 5 4 4 3 4 5 3 5
5 4 4 3 3 3 3 3 3 3 3 3 3 3 2 2 3 3 3 4 4 4 4 5 5 7 9 7 5 5 4 4 4 5 6 5 5 4 4 3 5 5 5
5 5 4 3 3 3 3 3 3 3 3 2 3 3 3 3 6 7 5 4 4 5 5 5 5 7 9 12 13 12 9 7 6 6 6 7 8 6 5 4 4 5 5
4 4 4 4 3 3 3 2 3 3 2 3 3 3 4 5 8 8 8 4 4 5 5 5 5 6 8 6 9 13 12 14 14 8 8 9 8 6 5 6 6 6 7
4 4 4 4 3 3 2 3 3 2 3 3 3 4 4 6 8 9 9 5 4 5 5 6 6 6 6 7 6 6 7 8 10 8 8 9 8 7 7 7 7 7 6
4 4 4 4 4 3 3 3 3 2 3 3 3 4 4 6 8 9 8 3 3 5 5 5 6 6 11 13 8 7 8 8 11 14 15 14 15 15 10 5 4 5 7
5 5 4 4 4 4 4 3 3 3 3 3 4 4 4 5 9 10 8 3 4 4 4 5 9 10 12 14 7 6 8 9 7 7 9 10 9 10 13 7 5 5 6
4 4 4 4 4 4 3 2 2 2 2 3 4 4 4 6 8 10 9 3 4 4 4 4 5 12 14 15 12 7 11 11 7 6 6 5 5 5 5 5 5 5 6
3 4 4 4 3 3 3 2 2 2 2 3 3 4 4 4 6 8 10 9 8 5 5 5 6 13 15 15 12 12 15 13 5 5 5 5 5 5 5 5 6 6 6
3 4 3 3 3 3 3 3 2 2 2 3 3 4 4 3 5 10 10 11 11 6 5 10 12 14 14 10 11 15 12 6 5 6 6 6 5 5 4 3 4 4 5
4 4 3 3 3 3 3 3 3 3 3 3 4 4 4 4 3 3 4 5 7 6 5 8 12 12 10 10 10 8 5 5 6 6 6 5 4 4 4 4 4 3 4
4 4 3 3 3 3 3 4 4 5 5 5 4 4 4 5 6 9 6 4 4 5 5 4 3 4 4 4 4 5 4 5 6 5 5 5 5 4 4 3 3 3 4
4 4 3 3 3 3 3 3 5 6 8 10 9 7 6 9 11 11 11 11 11 11 7 4 5 5 5 5 6 5 5 5 5 5 5 5 5 5 4 3 3 4 4
5 4 3 3 3 3 3 3 3 4 5 7 9 9 9 10 11 11 11 11 11 10 5 4 5 5 5 5 5 5 6 5 4 5 5 5 4 4 4 4 4 3 4
4 4 4 3 3 3 3 3 3 3 4 4 5 8 9 10 10 10 10 8 5 5 3 5 5 5 5 5 5 5 5 5 4 4 4 4 4 4 4 4 4 4 4
4 3 3 3 3 3 3 3 3 4 4 5 4 5 8 9 9 9 8 4 4 5 4 5 5 5 5 5 5 5 5 4 4 4 4 4 4 4 4 4 4 6 5
3 5 4 2 2 2 2 3 3 4 4 4 5 5 4 4 3 4 3 3 4 5 5 5 5 5 5 5 4 4 4 4 4 4 4 3 3 3 4 4 4 4 4
2 3 4 2 3 3 3 4 4 4 4 5 5 6 8 5 4 5 4 4 5 5 5 5 5 5 5 4 4 4 5 4 4 4 4 3 3 4 4 4 4 4 3
2 2 2 3 3 3 3 4 4 4 5 6 5 6 10 6 4 5 5 5 5 5 5 5 5 4 4 4 4 4 4 4 4 4 4 3 3 3 3 3 3 3 3
2 2 2 2 3 5 4 3 4 5 5 5 5 5 5 4 5 5 5 5 5 5 4 4 5 5 4 4 4 4 5 5 4 4 4 4 3 3 3 3 4 4 4
2 3 3 3 3 3 4 4 4 5 5 5 5 5 5 5 5 6 5 5 5 5 4 4 5 6 6 5 4 4 4 4 4 4 5 4 4 4 3 3 4 4 4
2 2 3 3 3 4 4 4 4 5 5 5 5 5 5 5 5 5 5 5 5 5 5 5 4 4 6 6 5 4 6 8 7 4 3 4 4 4 4 4 4 4 4
2 3 3 3 3 4 4 4 5 5 5 5 5 5 5 5 5 5 5 4 4 4 5 4 5 5 6 5 6 7 8 9 9 8 4 3 4 4 4 4 4 4 4
Wind_Direction
162 160 156 164 164 163 175 188 191 192 191 195 199 200 210 217 205 198 220 224 229 245 243 234 245 244 244 245 235 231 231 223 257 274 254 258 261 270 283 278 270 269 277
164 158 163 165 162 170 188 198 191 197 203 201 199 204 217 222 215 210 225 229 228 239 246 244 251 251 247 246 237 239 241 230 241 272 279 268 257 258 264 271 277 272 264
161 160 164 171 174 185 196 199 194 198 207 209 203 213 225 229 228 228 227 233 234 237 238 240 249 246 255 253 246 246 249 251 238 257 275 271 266 264 271 273 269 269 271
166 168 178 189 191 196 199 198 202 201 205 215 219 224 228 232 235 237 236 239 242 243 241 240 243 239 246 251 253 249 249 252 248 254 270 275 269 263 258 270 281 268 271
169 179 195 195 191 193 198 206 210 210 213 215 218 231 235 234 235 238 237 238 242 249 251 247 246 251 255 259 260 251 244 250 255 260 268 275 273 266 260 256 271 281 270
177 191 192 185 189 198 207 208 209 213 214 211 220 230 242 250 270 269 266 246 245 246 255 258 259 263 268 274 276 272 260 254 254 256 262 263 268 261 261 257 266 280 282
184 192 189 188 197 207 207 203 211 217 212 222 232 234 244 258 274 276 273 265 245 245 249 256 267 266 277 266 274 279 276 272 268 261 258 259 262 256 255 261 255 255 260
191 198 197 193 204 206 202 215 219 214 215 224 233 237 244 260 275 280 279 265 247 248 247 247 255 264 265 270 264 267 266 267 269 267 255 257 254 250 242 251 257 262 262
200 206 204 197 203 205 215 227 220 214 227 230 235 236 244 265 278 282 282 255 251 257 254 250 254 259 273 280 277 271 277 275 277 273 269 269 268 270 267 261 254 264 274
211 210 203 196 202 212 221 226 216 213 229 237 248 244 243 256 275 282 282 249 255 266 266 259 266 272 276 281 273 264 273 278 274 276 275 275 272 269 269 255 239 252 267
207 202 201 201 208 215 219 221 221 223 234 247 259 263 253 256 272 279 280 263 247 262 268 267 263 279 284 285 285 271 271 281 276 268 266 264 262 257 253 243 231 232 248
198 202 209 210 212 208 209 227 225 218 235 255 265 277 266 261 268 277 281 278 275 263 265 266 270 282 286 288 287 282 286 290 278 272 269 266 262 258 251 243 237 235 237
198 211 218 218 216 205 204 218 230 223 228 247 253 268 278 269 270 280 283 283 281 277 266 274 282 286 290 289 284 288 291 285 274 270 268 265 254 250 249 248 246 244 249
205 217 217 214 223 221 213 210 215 224 232 242 248 259 271 274 266 264 265 276 281 279 277 279 286 287 287 285 287 288 277 266 269 267 268 267 260 250 248 244 252 254 263
212 218 218 219 222 229 227 221 221 223 219 228 237 238 253 270 268 276 281 272 266 266 286 281 278 283 278 277 275 270 267 270 271 262 261 265 264 258 254 244 247 252 253
212 218 219 220 223 225 238 267 251 244 257 257 256 255 257 264 282 284 284 285 287 286 291 277 278 278 278 281 281 279 272 267 262 260 260 258 260 257 257 248 244 250 256
212 219 218 219 221 224 226 238 274 288 276 272 269 271 272 280 286 288 288 290 289 290 281 270 272 275 277 278 277 277 277 271 263 258 259 256 255 254 252 250 245 246 252
217 224 222 222 223 225 228 232 238 259 284 287 281 280 284 287 290 293 293 297 288 281 261 266 271 273 273 273 273 274 276 276 268 262 256 252 250 251 250 249 245 244 249
216 222 221 222 222 224 229 234 241 248 260 273 286 288 286 289 292 290 293 271 267 270 268 267 268 269 268 268 270 270 270 272 271 265 258 252 248 246 248 246 245 249 255
226 235 232 222 222 227 231 238 246 251 258 264 271 277 285 286 280 281 268 257 262 267 266 267 268 268 266 265 267 269 269 269 269 264 259 254 248 244 245 244 243 245 245
225 235 240 235 229 234 239 243 248 252 258 264 267 271 280 279 271 270 267 259 258 263 265 265 266 267 264 263 262 262 263 266 263 262 258 254 249 249 247 243 242 239 241
220 228 228 230 237 243 248 245 249 255 260 266 273 278 283 277 265 266 266 265 260 258 260 261 263 261 256 255 257 258 258 259 258 257 254 251 249 247 245 241 238 238 238
221 233 244 243 243 260 267 255 255 258 263 265 270 274 275 269 266 267 268 268 265 265 262 258 260 263 259 252 249 249 252 254 251 247 251 253 250 244 239 239 238 241 243
228 234 242 251 250 248 253 257 258 262 266 269 271 271 273 271 270 271 271 269 268 266 262 257 255 257 259 260 257 254 251 252 252 248 243 242 241 239 235 234 237 239 243
239 247 253 256 259 260 261 264 267 268 270 272 271 272 272 272 272 273 271 270 269 268 266 261 258 258 258 258 258 256 256 262 265 254 242 240 237 233 231 232 235 238 241
249 252 255 258 260 263 266 269 270 270 270 271 270 269 270 271 273 273 272 270 269 269 268 265 259 258 260 259 257 258 264 269 269 264 255 242 233 233 230 233 231 235 239